Location: Unspecified
(40.7945°N, 111.1337°W)
Time: 07:41:50
(UTC-06:00)

Vanguard 1 - Pass Details

Date: 03 July 2019
Orbit: 653 x 3830 km, 34.3° (Epoch: 17 July)

Event Time Altitude Azimuth Distance (km) Brightness Sun altitude
Rises 20:17:30 0° 165° (SSE) 6,938 14.0 6.2°
Reaches altitude 10° 20:30:13 10° 132° (SE) 6,680 13.7 4.0°
Maximum altitude 20:33:11 10° 124° (SE) 6,749 13.7 3.5°
Drops below altitude 10° 20:36:12 10° 116° (ESE) 6,864 13.7 3.0°
Sets 20:50:19 0° 85° (E) 7,877 14.2 0.7°
